Regional Weather Roundup
Issued by NWS San Diego, CA

Home | Current Version | Previous Version | Text Only | Print | Product List | Glossary On
Versions: 1 2 3 4 5 6 7 8 9 10 11 12 13 14 15 16 17 18 19 20 21 22 23 24 25 26 27 28 29 30 31 32 33 34 35 36 37 38 39 40 41 42 43 44 45 46 47 48 49 50
000
ASUS46 KSGX 290311
RWRSGX

SAN DIEGO HOURLY WEATHER ROUNDUP
NATIONAL WEATHER SERVICE SAN DIEGO CA
800 PM PDT TUE JUL 28 2015

NOTE: "FAIR" INDICATES FEW OR NO CLOUDS BELOW 12,000 FEET WITH NO
SIGNIFICANT WEATHER AND/OR OBSTRUCTIONS TO VISIBILITY.

CAZ042-043-060-061-PZZ750-775-290400-

GREATER SAN DIEGO AREA

CITY           SKY/WX    TMP DP  RH WIND       PRES   REMARKS
LINDBERGH FLD  MOCLDY    71  61  70 W5        29.89R
POINT LOMA       N/A     66  59  79 W7          N/A
NATIONAL CITY    N/A     71  64  78 SW3       29.89R
CHULA VISTA      N/A     69  64  84 W3        29.81R
IMPERIAL BEACH MOCLDY    69  61  75 CALM      29.89R
BROWN FIELD    CLEAR     67  61  81 W6        29.89R
MIRAMAR MCAS   PTCLDY    71  60  68 W5        29.89R
MONTGOMERY FLD CLEAR     69  61  75 SW7       29.89R

$$

NORTH SAN DIEGO COUNTY

CITY           SKY/WX    TMP DP  RH WIND       PRES   REMARKS
CAMP PENDLETON CLEAR     69  61  75 S7        29.87R
OCEANSIDE AP   MOCLDY    70  62  76 CALM      29.87R
OCEANSIDE HBR    N/A     69  65  86 SW2       29.89R
VISTA            N/A     69  63  81 CALM      29.86R
CARLSBAD       PTCLDY    69  62  78 W5        29.87R
DEL MAR          N/A     69  64  85 CALM      29.90R
LA JOLLA SCRIP   N/A    N/A N/A N/A SW3       29.86R
FALLBROOK        N/A     69  65  87 S2        29.87R
ESCONDIDO        N/A     72  63  73 W1        29.89R
POWAY            N/A     70  62  75 W2        29.88R

$$

EAST SAN DIEGO COUNTY

CITY           SKY/WX    TMP DP  RH WIND       PRES   REMARKS
RAMONA         CLEAR     69  60  73 W7        29.90R
SANTEE LAKES     N/A     71  62  72 W3        29.86R
LA MESA          N/A     70  61  73 CALM      29.81R
JAMUL            N/A     68  61  77 CALM      29.87R
DESCANSO N       N/A     72  59  64 CALM      29.72R
CAMPO            N/A     71  58  63 S7        29.91R

$$

ORANGE COUNTY AND THE LOS ANGELES BASIN

CITY           SKY/WX    TMP DP  RH WIND       PRES   REMARKS
JOHN WAYNE AP  PTCLDY    72  64  76 S7        29.85R
LAKE FOREST FR   N/A     73  61  65 W3        29.75R
SANTA ANA        N/A     77  65  67 CALM      29.80R
HUNTINGTON BCH   N/A     71  66  85 W12       29.87R
LOS ALAMITOS   CLEAR     75  65  70 W6        29.84R
FULLERTON      CLEAR     77  63  61 W6        29.83R
LONG BEACH     CLEAR     74  63  68 NW10      29.85R
L.A. AP        PTCLDY    70  65  84 W13       29.86R
L.A. DOWNTOWN  CLEAR     72  64  76 CALM      29.85R

$$

THE INLAND EMPIRE

CITY           SKY/WX    TMP DP  RH WIND       PRES   REMARKS
CORONA         CLEAR     77  62  59 W12       29.84R
CHINO          CLEAR     78  62  57 W8        29.85R
ONTARIO        CLEAR     80  61  52 SW12      29.85R
SAN BERNARDINO CLEAR     82  55  39 SW9       29.86R
RIVERSIDE AP   CLEAR     79  61  53 W6        29.85R
MORENO VALLEY    N/A     83  63  51 NW3       29.82S
MARCH ARB      CLEAR     79  60  51 NW8       29.88R
HORSETHIEF CYN   N/A     81  55  41 W3        29.86R
PERRIS           N/A     82  60  47 NW5       29.87R
MENIFEE          N/A     80  64  58 SE9       29.90R
HEMET EAST       N/A     86  53  31 CALM      29.85R
FRENCH VALLEY  FAIR      73  59  60 S9        29.89R
TEMECULA         N/A     76  62  61 S3        29.82R

$$

SAN BERNARDINO AND RIVERSIDE COUNTY MOUNTAINS

CITY           SKY/WX    TMP DP  RH WIND       PRES   REMARKS
BIG BEAR AP    CLEAR     66  34  30 W3        30.24R
PINE COVE        N/A     70  49  47 CALM      29.82S

$$

SOUTHERN DESERT INCLUDING THE COACHELLA VALLEY

CITY           SKY/WX    TMP DP  RH WIND       PRES   REMARKS
PALM SPRINGS   CLEAR    101  51  18 SE6       29.76R HX  98
THOUSAND PALMS   N/A     99  51  19 SE3       29.70R HX  96
PALM DESERT      N/A     99  55  22 CALM      31.74S HX  97
THERMAL        CLEAR     94  62  34 CALM      29.68R
BLYTHE         CLEAR    103  58  22 S8        29.73R HX 102
IMPERIAL AP    CLEAR    101  56  22 SE10      29.70R HX 100
EL CENTRO NAS  PTCLDY    99  57  24 E10       29.71R HX  98
YUMA AZ        PTCLDY   100  66  32 S12       29.74R HX 104
MEXICALI       CLEAR     97  59  28 SE9       29.73R HX  96

$$

UPPER DESERT

CITY           SKY/WX    TMP DP  RH WIND       PRES   REMARKS
VICTORVILLE AP CLEAR     90  18   7 S10       29.92R
HESPERIA         N/A     87  33  15 CALM      29.89R
APPLE VALLEY     N/A     88  26  10 S2        29.96R
PALMDALE       CLEAR     87  41  19 SW10      29.90R
LANCASTER      CLEAR     86  48  26 SW13      29.89R
EDWARDS AFB    CLEAR     90  47  22 SW15      29.86R
DAGGETT        CLEAR     97  34  11 NE9       29.82R
29 PALMS N     CLEAR     94  36  13 S9        29.91R
NEEDLES        CLEAR    105  37   9 W6        29.76R HX  99

$$

REGIONAL REPORTS

CITY           SKY/WX    TMP DP  RH WIND       PRES   REMARKS
SANTA BARBARA  CLEAR     66  61  84 W8        29.85S
SANDBERG       CLEAR     77  46  33 SW13      30.08R
LAS VEGAS NV   CLEAR     99  25   7 NE10      29.82R
PHOENIX AZ     CLOUDY   102  55  20 SW6       29.78R HX 100
TIJUANA        CLEAR     66  59  77 W7        29.91R
ENSENADA NW      N/A     68  32  26 W12       29.85R

$$

OFFSHORE ISLANDS

CITY           SKY/WX    TMP DP  RH WIND       PRES   REMARKS
CATALINA ARPT  CLEAR     63  58  83 CALM      29.91R
SAN NICOLAS IS PTCLDY   N/A N/A N/A W14       29.87S

$$

MARINE AND OFFSHORE BUOY REPORTS

STATION/POSITION SKY/WX   TEMP    WIND        PRES    SWELL
                          AIR SEA DIR/SP/G            HT/PER/DIR
                          (F)     (DEG/KT/KT) (MB)    (FT/S/D)
TANNER BANKS               65 68  320/ 14/ 19 1011.3S   5/320/ 9
S CLEMENTE BASIN           66 70  290/ 10/ 12 1011.2R   5/260/17
SAN NICOLAS IS.               66                N/A     5/210/17
SO. S. ROSA ISLA           62 68  300/ 16/ 17 1010.5R   5/16
W. S. BARBARA CH           60 61  310/ 16/ 19 1010.4S   5/200/16
M. S. BARBARA CH           62 67  250/ 12/ 14 1011.5R
S. MONICA BASIN            68 72  280/  8/ 10 1010.8R   3/220/17
S PEDRO CHANNEL               72                N/A     2/250/17
DANA POINT                    74                N/A     3/210/17
OCEANSIDE OFFSHR              72                N/A     3/210/17
TORREY PINES OTR              73                N/A     3/220/15
LA JOLLA 1                 69 74  260/  3/  4 1011.3R
MISSION BAY BUOY              73                N/A     3/210/17
SAN DIEGO BAY                 73              1012.0R
POINT LOMA SOUTH              72                N/A     3/220/17

$$



USA.gov is the U.S. government's official web portal to all federal, state and local government web resources and services.